Location: Treviso
(45.6669°N, 12.2430°E)
Time: 09:27:59
(UTC+01:00)

ISS - Visible Passes

Search period start: 17 December 2018 00:00
Search period end: 27 December 2018 00:00
Orbit: 401 x 408 km, 51.6° (Epoch: 18 December)

Date Brightness Start Highest point End Pass type
(mag) Time Alt. Az. Time Alt. Az. Time Alt. Az.
22 Dec -0.7 07:03:59 10° S 07:06:26 19° SE 07:08:53 10° E visible
23 Dec -0.3 06:13:26 10° SSE 06:14:26 11° SE 06:15:25 10° ESE visible
24 Dec -2.4 06:55:05 10° SW 06:58:11 40° SE 07:01:19 10° ENE visible
25 Dec -1.4 06:03:22 10° SSW 06:06:03 23° SE 06:08:46 10° E visible
26 Dec -0.9 05:13:02 12° SSE 05:14:00 14° SE 05:15:43 10° ESE visible
26 Dec -3.8 06:46:44 10° WSW 06:50:02 86° SE 06:53:20 10° ENE visible
